Year,Month,Day,Hour,Minute,Value (Times are PST for temperature in C)
2009,01,18,00,00,6.70
2009,01,18,00,01,6.80
2009,01,18,00,02,6.80
2009,01,18,00,03,6.80
2009,01,18,00,04,6.80
2009,01,18,00,05,6.80
2009,01,18,00,06,6.80
2009,01,18,00,07,6.80
2009,01,18,00,08,6.80
2009,01,18,00,09,6.90
2009,01,18,00,10,6.90
2009,01,18,00,11,6.90
2009,01,18,00,12,6.90
2009,01,18,00,13,7.00
2009,01,18,00,14,7.10
2009,01,18,00,15,7.10
2009,01,18,00,16,7.20
2009,01,18,00,17,7.20
2009,01,18,00,18,7.20
2009,01,18,00,19,7.10
2009,01,18,00,20,7.10
2009,01,18,00,21,7.00
2009,01,18,00,22,7.00
2009,01,18,00,23,6.90
2009,01,18,00,24,6.90
2009,01,18,00,25,6.90
2009,01,18,00,26,6.80
2009,01,18,00,27,6.80
2009,01,18,00,28,6.80
2009,01,18,00,29,6.80
2009,01,18,00,30,6.80
2009,01,18,00,31,6.70
2009,01,18,00,32,6.70
2009,01,18,00,33,6.60
2009,01,18,00,34,6.60
2009,01,18,00,35,6.60
2009,01,18,00,36,6.60
2009,01,18,00,37,6.60
2009,01,18,00,38,6.50
2009,01,18,00,39,6.40
2009,01,18,00,40,6.40
2009,01,18,00,41,6.40
2009,01,18,00,42,6.40
2009,01,18,00,43,6.40
2009,01,18,00,44,6.40
2009,01,18,00,45,6.30
2009,01,18,00,46,6.30
2009,01,18,00,47,6.20
2009,01,18,00,48,6.20
2009,01,18,00,49,6.10
2009,01,18,00,50,6.00
2009,01,18,00,51,6.00
2009,01,18,00,52,5.90
2009,01,18,00,53,5.70
2009,01,18,00,54,5.80
2009,01,18,00,55,5.80
2009,01,18,00,56,5.90
2009,01,18,00,57,5.90
2009,01,18,00,58,5.80
2009,01,18,00,59,5.80
2009,01,18,01,00,5.90
2009,01,18,01,01,5.90
2009,01,18,01,02,5.90
2009,01,18,01,03,5.90
2009,01,18,01,04,5.90
2009,01,18,01,05,5.90
2009,01,18,01,06,5.90
2009,01,18,01,07,5.90
2009,01,18,01,08,5.80
2009,01,18,01,09,5.80
2009,01,18,01,10,5.70
2009,01,18,01,11,5.70
2009,01,18,01,12,5.60
2009,01,18,01,13,5.60
2009,01,18,01,14,5.60
2009,01,18,01,15,5.50
2009,01,18,01,16,5.50
2009,01,18,01,17,5.50
2009,01,18,01,18,5.50
2009,01,18,01,19,5.50
2009,01,18,01,20,5.60
2009,01,18,01,21,5.60
2009,01,18,01,22,5.60
2009,01,18,01,23,5.60
2009,01,18,01,24,5.60
2009,01,18,01,25,5.60
2009,01,18,01,26,5.60
2009,01,18,01,27,5.60
2009,01,18,01,28,5.60
2009,01,18,01,29,5.60
2009,01,18,01,30,5.50
2009,01,18,01,31,5.60
2009,01,18,01,32,5.60
2009,01,18,01,33,5.60
2009,01,18,01,34,5.50
2009,01,18,01,35,5.50
2009,01,18,01,36,5.40
2009,01,18,01,37,5.30
2009,01,18,01,38,5.30
2009,01,18,01,39,5.20
2009,01,18,01,40,5.20
2009,01,18,01,41,5.10
2009,01,18,01,42,5.10
2009,01,18,01,43,5.10
2009,01,18,01,44,5.10
2009,01,18,01,45,5.00
2009,01,18,01,46,4.90
2009,01,18,01,47,4.90
2009,01,18,01,48,4.90
2009,01,18,01,49,4.90
2009,01,18,01,50,4.90
2009,01,18,01,51,4.90
2009,01,18,01,52,4.90
2009,01,18,01,53,4.90
2009,01,18,01,54,4.90
2009,01,18,01,55,4.90
2009,01,18,01,56,4.90
2009,01,18,01,57,4.90
2009,01,18,01,58,4.90
2009,01,18,01,59,4.90
2009,01,18,02,00,4.80
2009,01,18,02,01,4.80
2009,01,18,02,02,4.70
2009,01,18,02,03,4.70
2009,01,18,02,04,4.70
2009,01,18,02,05,4.70
2009,01,18,02,06,4.70
2009,01,18,02,07,4.70
2009,01,18,02,08,4.70
2009,01,18,02,09,4.80
2009,01,18,02,10,4.70
2009,01,18,02,11,4.70
2009,01,18,02,12,4.80
2009,01,18,02,13,4.80
2009,01,18,02,14,4.80
2009,01,18,02,15,4.80
2009,01,18,02,16,4.80
2009,01,18,02,17,4.80
2009,01,18,02,18,4.90
2009,01,18,02,19,4.90
2009,01,18,02,20,4.90
2009,01,18,02,21,4.80
2009,01,18,02,22,4.80
2009,01,18,02,23,4.80
2009,01,18,02,24,4.80
2009,01,18,02,25,4.80
2009,01,18,02,26,4.90
2009,01,18,02,27,4.90
2009,01,18,02,28,4.90
2009,01,18,02,29,4.80
2009,01,18,02,30,4.80
2009,01,18,02,31,4.80
2009,01,18,02,32,4.80
2009,01,18,02,33,4.80
2009,01,18,02,34,4.80
2009,01,18,02,35,4.80
2009,01,18,02,36,4.90
2009,01,18,02,37,4.90
2009,01,18,02,38,4.90
2009,01,18,02,39,4.90
2009,01,18,02,40,4.90
2009,01,18,02,41,4.90
2009,01,18,02,42,4.80
2009,01,18,02,43,4.70
2009,01,18,02,44,4.60
2009,01,18,02,45,4.50
2009,01,18,02,46,4.40
2009,01,18,02,47,4.40
2009,01,18,02,48,4.30
2009,01,18,02,49,4.20
2009,01,18,02,50,4.20
2009,01,18,02,51,4.20
2009,01,18,02,52,4.20
2009,01,18,02,53,4.20
2009,01,18,02,54,4.20
2009,01,18,02,55,4.20
2009,01,18,02,56,4.20
2009,01,18,02,57,4.20
2009,01,18,02,58,4.10
2009,01,18,02,59,4.00
2009,01,18,03,00,4.00
2009,01,18,03,01,3.90
2009,01,18,03,02,3.80
2009,01,18,03,03,3.80
2009,01,18,03,04,4.00
2009,01,18,03,05,4.00
2009,01,18,03,06,4.20
2009,01,18,03,07,4.30
2009,01,18,03,08,4.50
2009,01,18,03,09,4.50
2009,01,18,03,10,4.60
2009,01,18,03,11,4.60
2009,01,18,03,12,4.60
2009,01,18,03,13,4.60
2009,01,18,03,14,4.60
2009,01,18,03,15,4.50
2009,01,18,03,16,4.40
2009,01,18,03,17,4.30
2009,01,18,03,18,4.20
2009,01,18,03,19,4.10
2009,01,18,03,20,4.00
2009,01,18,03,21,4.00
2009,01,18,03,22,3.90
2009,01,18,03,23,3.80
2009,01,18,03,24,3.80
2009,01,18,03,25,3.70
2009,01,18,03,26,3.60
2009,01,18,03,27,3.60
2009,01,18,03,28,3.50
2009,01,18,03,29,3.50
2009,01,18,03,30,3.50
2009,01,18,03,31,3.40
2009,01,18,03,32,3.30
2009,01,18,03,33,3.30
2009,01,18,03,34,3.20
2009,01,18,03,35,3.10
2009,01,18,03,36,3.10
2009,01,18,03,37,3.10
2009,01,18,03,38,3.10
2009,01,18,03,39,3.10
2009,01,18,03,40,3.10
2009,01,18,03,41,3.00
2009,01,18,03,42,2.90
2009,01,18,03,43,2.90
2009,01,18,03,44,2.90
2009,01,18,03,45,2.90
2009,01,18,03,46,2.90
2009,01,18,03,47,2.90
2009,01,18,03,48,2.90
2009,01,18,03,49,2.80
2009,01,18,03,50,2.80
2009,01,18,03,51,2.80
2009,01,18,03,52,2.70
2009,01,18,03,53,2.70
2009,01,18,03,54,2.70
2009,01,18,03,55,2.70
2009,01,18,03,56,2.70
2009,01,18,03,57,2.70
2009,01,18,03,58,2.70
2009,01,18,03,59,2.70
2009,01,18,04,00,2.70
2009,01,18,04,01,2.70
2009,01,18,04,02,2.70
2009,01,18,04,03,2.70
2009,01,18,04,04,2.70
2009,01,18,04,05,2.70
2009,01,18,04,06,2.70
2009,01,18,04,07,2.70
2009,01,18,04,08,2.70
2009,01,18,04,09,2.70
2009,01,18,04,10,2.60
2009,01,18,04,11,2.60
2009,01,18,04,12,2.70
2009,01,18,04,13,2.70
2009,01,18,04,14,2.70
2009,01,18,04,15,2.70
2009,01,18,04,16,2.70
2009,01,18,04,17,2.70
2009,01,18,04,18,2.70
2009,01,18,04,19,2.70
2009,01,18,04,20,2.70
2009,01,18,04,21,2.70
2009,01,18,04,22,2.70
2009,01,18,04,23,2.70
2009,01,18,04,24,2.70
2009,01,18,04,25,2.70
2009,01,18,04,26,2.70
2009,01,18,04,27,2.70
2009,01,18,04,28,2.60
2009,01,18,04,29,2.60
2009,01,18,04,30,2.60
2009,01,18,04,31,2.60
2009,01,18,04,32,2.60
2009,01,18,04,33,2.60
2009,01,18,04,34,2.60
2009,01,18,04,35,2.60
2009,01,18,04,36,2.60
2009,01,18,04,37,2.50
2009,01,18,04,38,2.50
2009,01,18,04,39,2.50
2009,01,18,04,40,2.40
2009,01,18,04,41,2.40
2009,01,18,04,42,2.40
2009,01,18,04,43,2.40
2009,01,18,04,44,2.30
2009,01,18,04,45,2.30
2009,01,18,04,46,2.30
2009,01,18,04,47,2.20
2009,01,18,04,48,2.20
2009,01,18,04,49,2.20
2009,01,18,04,50,2.20
2009,01,18,04,51,2.20
2009,01,18,04,52,2.20
2009,01,18,04,53,2.30
2009,01,18,04,54,2.50
2009,01,18,04,55,2.60
2009,01,18,04,56,2.80
2009,01,18,04,57,2.90
2009,01,18,04,58,3.10
2009,01,18,04,59,3.30
2009,01,18,05,00,3.40
2009,01,18,05,01,3.60
2009,01,18,05,02,3.70
2009,01,18,05,03,3.80
2009,01,18,05,04,4.00
2009,01,18,05,05,4.00
2009,01,18,05,06,4.10
2009,01,18,05,07,4.20
2009,01,18,05,08,4.20
2009,01,18,05,09,4.20
2009,01,18,05,10,4.30
2009,01,18,05,11,4.30
2009,01,18,05,12,4.30
2009,01,18,05,13,4.40
2009,01,18,05,14,4.40
2009,01,18,05,15,4.40
2009,01,18,05,16,4.40
2009,01,18,05,17,4.40
2009,01,18,05,18,4.40
2009,01,18,05,19,4.30
2009,01,18,05,20,4.40
2009,01,18,05,21,4.40
2009,01,18,05,22,4.40
2009,01,18,05,23,4.40
2009,01,18,05,24,4.40
2009,01,18,05,25,4.40
2009,01,18,05,26,4.40
2009,01,18,05,27,4.40
2009,01,18,05,28,4.40
2009,01,18,05,29,4.40
2009,01,18,05,30,4.40
2009,01,18,05,31,4.30
2009,01,18,05,32,4.30
2009,01,18,05,33,4.30
2009,01,18,05,34,4.30
2009,01,18,05,35,4.30
2009,01,18,05,36,4.30
2009,01,18,05,37,4.30
2009,01,18,05,38,4.30
2009,01,18,05,39,4.40
2009,01,18,05,40,4.40
2009,01,18,05,41,4.40
2009,01,18,05,42,4.40
2009,01,18,05,43,4.50
2009,01,18,05,44,4.50
2009,01,18,05,45,4.50
2009,01,18,05,46,4.50
2009,01,18,05,47,4.40
2009,01,18,05,48,4.30
2009,01,18,05,49,4.30
2009,01,18,05,50,4.30
2009,01,18,05,51,4.20
2009,01,18,05,52,4.20
2009,01,18,05,53,4.20
2009,01,18,05,54,4.20
2009,01,18,05,55,4.20
2009,01,18,05,56,4.20
2009,01,18,05,57,4.20
2009,01,18,05,58,4.20
2009,01,18,05,59,4.20
2009,01,18,06,00,4.20
2009,01,18,06,01,4.30
2009,01,18,06,02,4.30
2009,01,18,06,03,4.40
2009,01,18,06,04,4.50
2009,01,18,06,05,4.50
2009,01,18,06,06,4.60
2009,01,18,06,07,4.60
2009,01,18,06,08,4.70
2009,01,18,06,09,4.80
2009,01,18,06,10,4.80
2009,01,18,06,11,4.90
2009,01,18,06,12,4.90
2009,01,18,06,13,5.00
2009,01,18,06,14,5.10
2009,01,18,06,15,5.10
2009,01,18,06,16,5.10
2009,01,18,06,17,5.10
2009,01,18,06,18,5.20
2009,01,18,06,19,5.20
2009,01,18,06,20,5.20
2009,01,18,06,21,5.20
2009,01,18,06,22,5.20
2009,01,18,06,23,5.10
2009,01,18,06,24,5.10
2009,01,18,06,25,5.10
2009,01,18,06,26,4.90
2009,01,18,06,27,4.90
2009,01,18,06,28,4.90
2009,01,18,06,29,4.80
2009,01,18,06,30,4.80
2009,01,18,06,31,4.70
2009,01,18,06,32,4.70
2009,01,18,06,33,4.70
2009,01,18,06,34,4.70
2009,01,18,06,35,4.70
2009,01,18,06,36,4.80
2009,01,18,06,37,4.80
2009,01,18,06,38,4.80
2009,01,18,06,39,4.90
2009,01,18,06,40,4.90
2009,01,18,06,41,4.90
2009,01,18,06,42,4.90
2009,01,18,06,43,4.90
2009,01,18,06,44,4.90
2009,01,18,06,45,4.90
2009,01,18,06,46,5.10
2009,01,18,06,47,5.10
2009,01,18,06,48,5.10
2009,01,18,06,49,5.10
2009,01,18,06,50,5.10
2009,01,18,06,51,5.10
2009,01,18,06,52,5.10
2009,01,18,06,53,5.10
2009,01,18,06,54,5.10
2009,01,18,06,55,5.10
2009,01,18,06,56,5.20
2009,01,18,06,57,5.20
2009,01,18,06,58,5.20
2009,01,18,06,59,5.20
2009,01,18,07,00,5.20
2009,01,18,07,01,5.10
2009,01,18,07,02,5.10
2009,01,18,07,03,5.10
2009,01,18,07,04,5.10
2009,01,18,07,05,5.10
2009,01,18,07,06,5.10
2009,01,18,07,07,5.10
2009,01,18,07,08,5.10
2009,01,18,07,09,5.10
2009,01,18,07,10,5.10
2009,01,18,07,11,5.20
2009,01,18,07,12,5.30
2009,01,18,07,13,5.40
2009,01,18,07,14,5.40
2009,01,18,07,15,5.50
2009,01,18,07,16,5.50
2009,01,18,07,17,5.50
2009,01,18,07,18,5.50
2009,01,18,07,19,5.50
2009,01,18,07,20,5.60
2009,01,18,07,21,5.60
2009,01,18,07,22,5.70
2009,01,18,07,23,5.70
2009,01,18,07,24,5.70
2009,01,18,07,25,5.70
2009,01,18,07,26,5.80
2009,01,18,07,27,5.80
2009,01,18,07,28,5.80
2009,01,18,07,29,5.80
2009,01,18,07,30,5.80
2009,01,18,07,31,5.90
2009,01,18,07,32,5.90
2009,01,18,07,33,6.00
2009,01,18,07,34,6.00
2009,01,18,07,35,5.90
2009,01,18,07,36,5.80
2009,01,18,07,37,5.60
2009,01,18,07,38,5.50
2009,01,18,07,39,5.30
2009,01,18,07,40,5.20
2009,01,18,07,41,5.10
2009,01,18,07,42,4.90
2009,01,18,07,43,4.70
2009,01,18,07,44,4.60
2009,01,18,07,45,4.40
2009,01,18,07,46,4.30
2009,01,18,07,47,4.20
2009,01,18,07,48,4.00
2009,01,18,07,49,3.90
2009,01,18,07,50,3.80
2009,01,18,07,51,3.80
2009,01,18,07,52,3.90
2009,01,18,07,53,4.10
2009,01,18,07,54,4.20
2009,01,18,07,55,4.40
2009,01,18,07,56,4.40
2009,01,18,07,57,4.40
2009,01,18,07,58,4.40
2009,01,18,07,59,4.40
2009,01,18,08,00,4.30
2009,01,18,08,01,4.30
2009,01,18,08,02,4.20
2009,01,18,08,03,4.20
2009,01,18,08,04,4.20
2009,01,18,08,05,4.10
2009,01,18,08,06,4.00
2009,01,18,08,07,4.00
2009,01,18,08,08,3.90
2009,01,18,08,09,3.80
2009,01,18,08,10,3.70
2009,01,18,08,11,3.60
2009,01,18,08,12,3.60
2009,01,18,08,13,3.50
2009,01,18,08,14,3.50
2009,01,18,08,15,3.50
2009,01,18,08,16,3.50
2009,01,18,08,17,3.50
2009,01,18,08,18,3.50
2009,01,18,08,19,3.50
2009,01,18,08,20,3.40
2009,01,18,08,21,3.40
2009,01,18,08,22,3.40
2009,01,18,08,23,3.30
2009,01,18,08,24,3.30
2009,01,18,08,25,3.30
2009,01,18,08,26,3.30
2009,01,18,08,27,3.30
2009,01,18,08,28,3.40
2009,01,18,08,29,3.40
2009,01,18,08,30,3.40
2009,01,18,08,31,3.40
2009,01,18,08,32,3.40
2009,01,18,08,33,3.50
2009,01,18,08,34,3.50
2009,01,18,08,35,3.60
2009,01,18,08,36,3.60
2009,01,18,08,37,3.70
2009,01,18,08,38,3.80
2009,01,18,08,39,4.00
2009,01,18,08,40,4.10
2009,01,18,08,41,4.20
2009,01,18,08,42,4.40
2009,01,18,08,43,4.50
2009,01,18,08,44,4.60
2009,01,18,08,45,4.60
2009,01,18,08,46,4.60
2009,01,18,08,47,4.70
2009,01,18,08,48,4.70
2009,01,18,08,49,4.70
2009,01,18,08,50,4.70
2009,01,18,08,51,4.70
2009,01,18,08,52,4.70
2009,01,18,08,53,4.80
2009,01,18,08,54,4.80
2009,01,18,08,55,4.90
2009,01,18,08,56,4.90
2009,01,18,08,57,4.90
2009,01,18,08,58,5.10
2009,01,18,08,59,5.10
2009,01,18,09,00,5.20
2009,01,18,09,01,5.30
2009,01,18,09,02,5.30
2009,01,18,09,03,5.30
2009,01,18,09,04,5.30
2009,01,18,09,05,5.30
2009,01,18,09,06,5.30
2009,01,18,09,07,5.40
2009,01,18,09,08,5.50
2009,01,18,09,09,5.50
2009,01,18,09,10,5.60
2009,01,18,09,11,5.60
2009,01,18,09,12,5.70
2009,01,18,09,13,5.70
2009,01,18,09,14,5.70
2009,01,18,09,15,5.80
2009,01,18,09,16,5.90
2009,01,18,09,17,6.00
2009,01,18,09,18,6.10
2009,01,18,09,19,6.20
2009,01,18,09,20,6.20
2009,01,18,09,21,6.30
2009,01,18,09,22,6.40
2009,01,18,09,23,6.40
2009,01,18,09,24,6.50
2009,01,18,09,25,6.60
2009,01,18,09,26,6.60
2009,01,18,09,27,6.70
2009,01,18,09,28,6.70
2009,01,18,09,29,6.80
2009,01,18,09,30,6.80
2009,01,18,09,31,6.90
2009,01,18,09,32,6.90
2009,01,18,09,33,7.00
2009,01,18,09,34,7.10
2009,01,18,09,35,7.10
2009,01,18,09,36,7.20
2009,01,18,09,37,7.20
2009,01,18,09,38,7.30
2009,01,18,09,39,7.30
2009,01,18,09,40,7.40
2009,01,18,09,41,7.50
2009,01,18,09,42,7.60
2009,01,18,09,43,7.60
2009,01,18,09,44,7.70
2009,01,18,09,45,7.80
2009,01,18,09,46,7.80
2009,01,18,09,47,7.80
2009,01,18,09,48,7.80
2009,01,18,09,49,7.90
2009,01,18,09,50,8.00
2009,01,18,09,51,8.10
2009,01,18,09,52,8.20
2009,01,18,09,53,8.20
2009,01,18,09,54,8.20
2009,01,18,09,55,8.30
2009,01,18,09,56,8.40
2009,01,18,09,57,8.40
2009,01,18,09,58,8.50
2009,01,18,09,59,8.60
2009,01,18,10,00,8.70
2009,01,18,10,01,8.70
2009,01,18,10,02,8.80
2009,01,18,10,03,8.90
2009,01,18,10,04,9.00
2009,01,18,10,05,9.10
2009,01,18,10,06,9.20
2009,01,18,10,07,9.20
2009,01,18,10,08,9.30
2009,01,18,10,09,9.40
2009,01,18,10,10,9.50
2009,01,18,10,11,9.60
2009,01,18,10,12,9.70
2009,01,18,10,13,9.80
2009,01,18,10,14,9.80
2009,01,18,10,15,9.80
2009,01,18,10,16,9.90
2009,01,18,10,17,9.90
2009,01,18,10,18,9.90
2009,01,18,10,19,10.00
2009,01,18,10,20,10.10
2009,01,18,10,21,10.20
2009,01,18,10,22,10.30
2009,01,18,10,23,10.50
2009,01,18,10,24,10.80
2009,01,18,10,25,11.00
2009,01,18,10,26,11.30
2009,01,18,10,27,11.50
2009,01,18,10,28,11.70
2009,01,18,10,29,11.90
2009,01,18,10,30,12.10
2009,01,18,10,31,12.20
2009,01,18,10,32,12.30
2009,01,18,10,33,12.40
2009,01,18,10,34,12.50
2009,01,18,10,35,12.60
2009,01,18,10,36,12.70
2009,01,18,10,37,12.80
2009,01,18,10,38,12.90
2009,01,18,10,39,13.00
2009,01,18,10,40,13.00
2009,01,18,10,41,13.10
2009,01,18,10,42,13.10
2009,01,18,10,43,13.20
2009,01,18,10,44,13.20
2009,01,18,10,45,13.10
2009,01,18,10,46,13.00
2009,01,18,10,47,12.90
2009,01,18,10,48,12.90
2009,01,18,10,49,13.00
2009,01,18,10,50,12.90
2009,01,18,10,51,12.80
2009,01,18,10,52,12.60
2009,01,18,10,53,12.40
2009,01,18,10,54,12.20
2009,01,18,10,55,12.00
2009,01,18,10,56,11.80
2009,01,18,10,57,11.80
2009,01,18,10,58,11.70
2009,01,18,10,59,11.60
2009,01,18,11,00,11.60
2009,01,18,11,01,11.60
2009,01,18,11,02,11.50
2009,01,18,11,03,11.40
2009,01,18,11,04,11.60
2009,01,18,11,05,11.60
2009,01,18,11,06,11.80
2009,01,18,11,07,12.10
2009,01,18,11,08,12.40
2009,01,18,11,09,12.60
2009,01,18,11,10,12.90
2009,01,18,11,11,13.30
2009,01,18,11,12,13.50
2009,01,18,11,13,13.60
2009,01,18,11,14,13.80
2009,01,18,11,15,13.90
2009,01,18,11,16,14.00
2009,01,18,11,17,14.20
2009,01,18,11,18,14.20
2009,01,18,11,19,14.20
2009,01,18,11,20,14.30
2009,01,18,11,21,14.40
2009,01,18,11,22,14.50
2009,01,18,11,23,14.50
2009,01,18,11,24,14.50
2009,01,18,11,25,14.60
2009,01,18,11,26,14.50
2009,01,18,11,27,14.10
2009,01,18,11,28,13.60
2009,01,18,11,29,13.10
2009,01,18,11,30,12.50
2009,01,18,11,31,12.10
2009,01,18,11,32,11.80
2009,01,18,11,33,11.50
2009,01,18,11,34,11.30
2009,01,18,11,35,11.20
2009,01,18,11,36,11.10
2009,01,18,11,37,11.10
2009,01,18,11,38,11.10
2009,01,18,11,39,11.10
2009,01,18,11,40,11.20
2009,01,18,11,41,11.20
2009,01,18,11,42,11.30
2009,01,18,11,43,11.30
2009,01,18,11,44,11.30
2009,01,18,11,45,11.30
2009,01,18,11,46,11.30
2009,01,18,11,47,11.20
2009,01,18,11,48,11.10
2009,01,18,11,49,11.10
2009,01,18,11,50,11.00
2009,01,18,11,51,10.90
2009,01,18,11,52,10.90
2009,01,18,11,53,10.90
2009,01,18,11,54,10.90
2009,01,18,11,55,10.90
2009,01,18,11,56,10.90
2009,01,18,11,57,10.90
2009,01,18,11,58,10.90
2009,01,18,11,59,10.80
2009,01,18,12,00,10.80
2009,01,18,12,01,10.70
2009,01,18,12,02,10.70
2009,01,18,12,03,10.60
2009,01,18,12,04,10.60
2009,01,18,12,05,10.60
2009,01,18,12,06,10.60
2009,01,18,12,07,10.60
2009,01,18,12,08,10.60
2009,01,18,12,09,10.50
2009,01,18,12,10,10.40
2009,01,18,12,11,10.40
2009,01,18,12,12,10.40
2009,01,18,12,13,10.40
2009,01,18,12,14,10.40
2009,01,18,12,15,10.40
2009,01,18,12,16,10.40
2009,01,18,12,17,10.40
2009,01,18,12,18,10.40
2009,01,18,12,19,10.40
2009,01,18,12,20,10.40
2009,01,18,12,21,10.40
2009,01,18,12,22,10.50
2009,01,18,12,23,10.60
2009,01,18,12,24,10.60
2009,01,18,12,25,10.60
2009,01,18,12,26,10.50
2009,01,18,12,27,10.40
2009,01,18,12,28,10.40
2009,01,18,12,29,10.30
2009,01,18,12,30,10.40
2009,01,18,12,31,10.40
2009,01,18,12,32,10.40
2009,01,18,12,33,10.40
2009,01,18,12,34,10.30
2009,01,18,12,35,10.30
2009,01,18,12,36,10.30
2009,01,18,12,37,10.30
2009,01,18,12,38,10.40
2009,01,18,12,39,10.40
2009,01,18,12,40,10.50
2009,01,18,12,41,10.60
2009,01,18,12,42,10.60
2009,01,18,12,43,10.60
2009,01,18,12,44,10.60
2009,01,18,12,45,10.60
2009,01,18,12,46,10.60
2009,01,18,12,47,10.60
2009,01,18,12,48,10.70
2009,01,18,12,49,10.70
2009,01,18,12,50,10.70
2009,01,18,12,51,10.60
2009,01,18,12,52,10.60
2009,01,18,12,53,10.50
2009,01,18,12,54,10.40
2009,01,18,12,55,10.40
2009,01,18,12,56,10.40
2009,01,18,12,57,10.40
2009,01,18,12,58,10.40
2009,01,18,12,59,10.40
2009,01,18,13,00,10.40
2009,01,18,13,01,10.30
2009,01,18,13,02,10.20
2009,01,18,13,03,10.20
2009,01,18,13,04,10.10
2009,01,18,13,05,10.00
2009,01,18,13,06,9.90
2009,01,18,13,07,9.80
2009,01,18,13,08,9.80
2009,01,18,13,09,9.80
2009,01,18,13,10,9.80
2009,01,18,13,11,9.90
2009,01,18,13,12,9.80
2009,01,18,13,13,9.80
2009,01,18,13,14,9.70
2009,01,18,13,15,9.70
2009,01,18,13,16,9.70
2009,01,18,13,17,9.60
2009,01,18,13,18,9.50
2009,01,18,13,19,9.50
2009,01,18,13,20,9.50
2009,01,18,13,21,9.50
2009,01,18,13,22,9.50
2009,01,18,13,23,9.60
2009,01,18,13,24,9.60
2009,01,18,13,25,9.60
2009,01,18,13,26,9.60
2009,01,18,13,27,9.70
2009,01,18,13,28,9.70
2009,01,18,13,29,9.70
2009,01,18,13,30,9.80
2009,01,18,13,31,9.80
2009,01,18,13,32,9.90
2009,01,18,13,33,9.90
2009,01,18,13,34,10.00
2009,01,18,13,35,10.10
2009,01,18,13,36,10.10
2009,01,18,13,37,10.10
2009,01,18,13,38,10.20
2009,01,18,13,39,10.20
2009,01,18,13,40,10.20
2009,01,18,13,41,10.20
2009,01,18,13,42,10.30
2009,01,18,13,43,10.30
2009,01,18,13,44,10.40
2009,01,18,13,45,10.40
2009,01,18,13,46,10.50
2009,01,18,13,47,10.60
2009,01,18,13,48,10.60
2009,01,18,13,49,10.50
2009,01,18,13,50,10.40
2009,01,18,13,51,10.40
2009,01,18,13,52,10.40
2009,01,18,13,53,10.40
2009,01,18,13,54,10.40
2009,01,18,13,55,10.40
2009,01,18,13,56,10.40
2009,01,18,13,57,10.40
2009,01,18,13,58,10.30
2009,01,18,13,59,10.30
2009,01,18,14,00,10.20
2009,01,18,14,01,10.10
2009,01,18,14,02,10.10
2009,01,18,14,03,10.00
2009,01,18,14,04,9.90
2009,01,18,14,05,9.90
2009,01,18,14,06,9.80
2009,01,18,14,07,9.80
2009,01,18,14,08,9.70
2009,01,18,14,09,9.70
2009,01,18,14,10,9.50
2009,01,18,14,11,9.50
2009,01,18,14,12,9.40
2009,01,18,14,13,9.50
2009,01,18,14,14,9.50
2009,01,18,14,15,9.40
2009,01,18,14,16,9.40
2009,01,18,14,17,9.30
2009,01,18,14,18,9.40
2009,01,18,14,19,9.40
2009,01,18,14,20,9.40
2009,01,18,14,21,9.40
2009,01,18,14,22,9.40
2009,01,18,14,23,9.40
2009,01,18,14,24,9.40
2009,01,18,14,25,9.50
2009,01,18,14,26,9.50
2009,01,18,14,27,9.40
2009,01,18,14,28,9.40
2009,01,18,14,29,9.40
2009,01,18,14,30,9.40
2009,01,18,14,31,9.40
2009,01,18,14,32,9.20
2009,01,18,14,33,9.20
2009,01,18,14,34,9.20
2009,01,18,14,35,9.20
2009,01,18,14,36,9.20
2009,01,18,14,37,9.10
2009,01,18,14,38,9.10
2009,01,18,14,39,9.10
2009,01,18,14,40,9.10
2009,01,18,14,41,9.20
2009,01,18,14,42,9.20
2009,01,18,14,43,9.10
2009,01,18,14,44,9.10
2009,01,18,14,45,9.10
2009,01,18,14,46,9.10
2009,01,18,14,47,9.10
2009,01,18,14,48,9.00
2009,01,18,14,49,9.00
2009,01,18,14,50,8.90
2009,01,18,14,51,8.90
2009,01,18,14,52,8.90
2009,01,18,14,53,8.90
2009,01,18,14,54,8.90
2009,01,18,14,55,8.80
2009,01,18,14,56,8.70
2009,01,18,14,57,8.70
2009,01,18,14,58,8.70
2009,01,18,14,59,8.70
2009,01,18,15,00,8.80
2009,01,18,15,01,8.70
2009,01,18,15,02,8.70
2009,01,18,15,03,8.70
2009,01,18,15,04,8.70
2009,01,18,15,05,8.70
2009,01,18,15,06,8.80
2009,01,18,15,07,8.80
2009,01,18,15,08,8.70
2009,01,18,15,09,8.70
2009,01,18,15,10,8.70
2009,01,18,15,11,8.80
2009,01,18,15,12,8.80
2009,01,18,15,13,8.90
2009,01,18,15,14,8.90
2009,01,18,15,15,8.80
2009,01,18,15,16,8.80
2009,01,18,15,17,8.70
2009,01,18,15,18,8.70
2009,01,18,15,19,8.70
2009,01,18,15,20,8.70
2009,01,18,15,21,8.70
2009,01,18,15,22,8.80
2009,01,18,15,23,8.80
2009,01,18,15,24,8.80
2009,01,18,15,25,8.80
2009,01,18,15,26,8.80
2009,01,18,15,27,8.80
2009,01,18,15,28,8.80
2009,01,18,15,29,8.70
2009,01,18,15,30,8.70
2009,01,18,15,31,8.70
2009,01,18,15,32,8.70
2009,01,18,15,33,8.70
2009,01,18,15,34,8.70
2009,01,18,15,35,8.70
2009,01,18,15,36,8.50
2009,01,18,15,37,8.50
2009,01,18,15,38,8.30
2009,01,18,15,39,8.30
2009,01,18,15,40,8.20
2009,01,18,15,41,8.20
2009,01,18,15,42,8.20
2009,01,18,15,43,8.20
2009,01,18,15,44,8.20
2009,01,18,15,45,8.20
2009,01,18,15,46,8.20
2009,01,18,15,47,8.10
2009,01,18,15,48,8.00
2009,01,18,15,49,7.90
2009,01,18,15,50,7.80
2009,01,18,15,51,7.90
2009,01,18,15,52,7.90
2009,01,18,15,53,7.90
2009,01,18,15,54,7.90
2009,01,18,15,55,8.00
2009,01,18,15,56,8.00
2009,01,18,15,57,8.00
2009,01,18,15,58,8.00
2009,01,18,15,59,8.00
2009,01,18,16,00,7.90
2009,01,18,16,01,7.90
2009,01,18,16,02,7.80
2009,01,18,16,03,7.80
2009,01,18,16,04,7.80
2009,01,18,16,05,7.90
2009,01,18,16,06,7.90
2009,01,18,16,07,7.90
2009,01,18,16,08,7.90
2009,01,18,16,09,7.90
2009,01,18,16,10,7.90
2009,01,18,16,11,8.00
2009,01,18,16,12,8.00
2009,01,18,16,13,8.00
2009,01,18,16,14,8.00
2009,01,18,16,15,8.00
2009,01,18,16,16,8.00
2009,01,18,16,17,8.00
2009,01,18,16,18,7.90
2009,01,18,16,19,7.80
2009,01,18,16,20,7.80
2009,01,18,16,21,7.80
2009,01,18,16,22,7.80
2009,01,18,16,23,7.80
2009,01,18,16,24,7.80
2009,01,18,16,25,7.70
2009,01,18,16,26,7.70
2009,01,18,16,27,7.70
2009,01,18,16,28,7.70
2009,01,18,16,29,7.60
2009,01,18,16,30,7.60
2009,01,18,16,31,7.50
2009,01,18,16,32,7.50
2009,01,18,16,33,7.50
2009,01,18,16,34,7.50
2009,01,18,16,35,7.40
2009,01,18,16,36,7.40
2009,01,18,16,37,7.40
2009,01,18,16,38,7.30
2009,01,18,16,39,7.30
2009,01,18,16,40,7.20
2009,01,18,16,41,7.10
2009,01,18,16,42,7.10
2009,01,18,16,43,7.00
2009,01,18,16,44,6.90
2009,01,18,16,45,6.90
2009,01,18,16,46,6.80
2009,01,18,16,47,6.80
2009,01,18,16,48,6.70
2009,01,18,16,49,6.70
2009,01,18,16,50,6.60
2009,01,18,16,51,6.60
2009,01,18,16,52,6.50
2009,01,18,16,53,6.40
2009,01,18,16,54,6.40
2009,01,18,16,55,6.30
2009,01,18,16,56,6.20
2009,01,18,16,57,6.10
2009,01,18,16,58,6.00
2009,01,18,16,59,6.00
2009,01,18,17,00,5.90
2009,01,18,17,01,5.80
2009,01,18,17,02,5.80
2009,01,18,17,03,5.70
2009,01,18,17,04,5.60
2009,01,18,17,05,5.60
2009,01,18,17,06,5.50
2009,01,18,17,07,5.40
2009,01,18,17,08,5.30
2009,01,18,17,09,5.30
2009,01,18,17,10,5.30
2009,01,18,17,11,5.20
2009,01,18,17,12,5.20
2009,01,18,17,13,5.10
2009,01,18,17,14,5.10
2009,01,18,17,15,5.10
2009,01,18,17,16,4.90
2009,01,18,17,17,4.90
2009,01,18,17,18,4.90
2009,01,18,17,19,4.80
2009,01,18,17,20,4.80
2009,01,18,17,21,4.70
2009,01,18,17,22,4.70
2009,01,18,17,23,4.60
2009,01,18,17,24,4.60
2009,01,18,17,25,4.60
2009,01,18,17,26,4.60
2009,01,18,17,27,4.50
2009,01,18,17,28,4.50
2009,01,18,17,29,4.40
2009,01,18,17,30,4.40
2009,01,18,17,31,4.30
2009,01,18,17,32,4.30
2009,01,18,17,33,4.20
2009,01,18,17,34,4.20
2009,01,18,17,35,4.20
2009,01,18,17,36,4.20
2009,01,18,17,37,4.20
2009,01,18,17,38,4.20
2009,01,18,17,39,4.10
2009,01,18,17,40,4.10
2009,01,18,17,41,4.10
2009,01,18,17,42,4.00
2009,01,18,17,43,4.00
2009,01,18,17,44,4.00
2009,01,18,17,45,4.00
2009,01,18,17,46,3.90
2009,01,18,17,47,3.90
2009,01,18,17,48,3.90
2009,01,18,17,49,3.80
2009,01,18,17,50,3.80
2009,01,18,17,51,3.80
2009,01,18,17,52,3.80
2009,01,18,17,53,3.80
2009,01,18,17,54,3.80
2009,01,18,17,55,3.80
2009,01,18,17,56,3.80
2009,01,18,17,57,3.80